sat.trackr.live / text

‹ back to catalog

ZHUHAI-1 03C

NORAD 44537 · 2019-060D

PAYLOAD ACTIVE UNKNOWN

§ Identity

Operator
Country
PRC
Launch date
2019-09-19
Launch site
JSC
Launch vehicle
Mass (kg)
RCS (m²)

External: N2YO · Heavens-Above · Gunter

§ Orbital elements

Epoch: 2026-06-03T03:53:35.420064Z

Period
88.24 min
Inclination
97.5247°
Eccentricity
0.0012525
Mean motion
16.31889338 rev/d
Perigee alt
179.2 km
Apogee alt
195.7 km
Semi-major
6,565.6 km
B*
8.3050e-4
RAAN
325.4962°
Arg perigee
265.6201°
Mean anomaly
94.3663°
Rev number
37,503

§ Raw data

ZHUHAI-1 03C1 44537U 19060D   26154.16221551  .04414569  25793-5  83050-3 0  99932 44537  97.5247 325.4962 0012525 265.6201  94.3663 16.31889338375036

JSON: /api/v1/satellites/44537 · /tle

For live sub-satellite position, see the globe view (requires WebGL).

§ Visibility from observer

Set your observer location to see the next 7 days of passes ≥ 10°. The values pass through the URL so the page stays shareable.

No JS? Fill the form by hand. The geolocation button needs JavaScript.

§ Radio — SatNOGS DB

ModeDescriptionDownlinkUplink
FM S-band telemetry 2.254 GHz

1 transmitter · refreshed weekly from db.satnogs.org